Location: Jalan Sepang
(2.8072°N, 101.8021°E)
Time: 05:05:02
(UTC+00:00)

Aurora 2 Rocket - Pass Details

Date: 15 May 2026
Orbit: 384 x 1526 km, 25.0° (Epoch: 7 June)

Event Time Altitude Azimuth Distance (km) Brightness Sun altitude
Rises 12:55:04 0° 272° (W) 2,252 6.6 -23.9°
Reaches altitude 10° 12:57:23 10° 253° (WSW) 1,445 5.1 -24.4°
Enters shadow 12:58:43 17° 230° (SW) 1,128 4.2 -24.7°
